FW4002 Weather Reports


time (UTC)temp
C
wind
direction
speed
KPH
gust
KPH
rain 1hr
cm
rain 24hr
cm
rain mn
cm
humidity
%
barometer
mb
20260902231803 32 217 3.2 8.0 0.00 0.00 0.00 65 1015.3
20260902230903 32 224 3.2 11.3 0.00 0.00 0.00 64 1015.3
20260902230024 33 219 3.2 14.5 0.00 0.00 0.00 63 1015.3
20260902225403 33 216 3.2 14.5 0.00 0.00 0.00 62 1015.3
20260902224503 33 226 3.2 9.7 0.00 0.00 0.00 62 1015.2
20260902223603 33 220 4.8 14.5 0.00 0.00 0.00 61 1015.2
20260902222703 33 217 4.8 14.5 0.00 0.00 0.00 61 1015.3
20260902221824 33 219 8.0 16.1 0.00 0.00 0.00 60 1015.4
20260902220903 33 224 8.0 17.7 0.00 0.00 0.00 58 1015.4
20260902220003 34 217 4.8 14.5 0.00 0.00 0.00 58 1015.4
20260902215403 34 222 3.2 14.5 0.00 0.00 0.00 58 1015.3
20260902214503 34 223 4.8 12.9 0.00 0.00 0.00 59 1015.3
20260902213603 34 217 6.4 14.5 0.00 0.00 0.00 58 1015.3
20260902212703 34 228 4.8 14.5 0.00 0.00 0.00 58 1015.3
20260902211803 34 221 6.4 14.5 0.00 0.00 0.00 58 1015.3
20260902210903 34 221 8.0 17.7 0.00 0.00 0.00 58 1015.4
20260902210003 34 219 8.0 20.9 0.00 0.00 0.00 57 1015.5
20260902205403 34 220 8.0 12.9 0.00 0.00 0.00 58 1015.4
20260902204503 34 215 8.0 19.3 0.00 0.00 0.00 57 1015.5
20260902203603 34 208 9.7 22.5 0.00 0.00 0.00 57 1015.7
20260902202703 33 214 9.7 22.5 0.00 0.00 0.00 57 1015.6
20260902201803 34 214 9.7 25.7 0.00 0.00 0.00 56 1015.7
20260902200903 34 215 6.4 19.3 0.00 0.00 0.00 56 1015.7
20260902200003 34 217 8.0 17.7 0.00 0.00 0.00 57 1015.8
20260902195424 34 214 8.0 19.3 0.00 0.00 0.00 57 1015.8
20260902194503 33 220 9.7 24.1 0.00 0.00 0.00 56 1016.0
20260902193603 33 222 9.7 24.1 0.00 0.00 0.00 57 1016.1
20260902192703 33 219 9.7 20.9 0.00 0.00 0.00 57 1016.1
20260902191803 33 215 11.3 20.9 0.00 0.00 0.00 56 1016.3
20260902190903 33 220 9.7 24.1 0.00 0.00 0.00 57 1016.4
20260902190004 33 212 9.7 24.1 0.00 0.00 0.00 58 1016.5
20260902185403 33 215 9.7 20.9 0.00 0.00 0.00 57 1016.5
20260902184503 33 219 8.0 27.4 0.00 0.00 0.00 59 1016.4
20260902183603 33 224 8.0 19.3 0.00 0.00 0.00 62 1016.7
20260902182703 33 246 6.4 16.1 0.00 0.00 0.00 61 1016.8
20260902181824 33 219 8.0 17.7 0.00 0.00 0.00 61 1016.9
20260902180903 33 211 8.0 19.3 0.00 0.00 0.00 62 1016.8
20260902180006 33 219 8.0 17.7 0.00 0.00 0.00 62 1017.0
20260902175424 33 227 8.0 17.7 0.00 0.00 0.00 62 1016.9
20260902174503 33 227 6.4 17.7 0.00 0.00 0.00 64 1017.0
20260902173603 32 235 4.8 20.9 0.00 0.00 0.00 63 1017.0
20260902172703 32 219 6.4 16.1 0.00 0.00 0.00 64 1017.1
20260902171803 32 215 6.4 20.9 0.00 0.00 0.00 63 1017.2
20260902170903 32 215 6.4 17.7 0.00 0.00 0.00 65 1017.3
20260902170004 32 245 4.8 16.1 0.00 0.00 0.00 65 1017.4
20260902165403 32 230 6.4 19.3 0.00 0.00 0.00 63 1017.4
20260902164503 32 221 4.8 19.3 0.00 0.00 0.00 64 1017.6
20260902163603 32 254 4.8 19.3 0.00 0.00 0.00 67 1017.6
20260902162703 31 235 4.8 17.7 0.00 0.00 0.00 66 1017.7
20260902161803 31 236 4.8 17.7 0.00 0.00 0.00 68 1017.8
20260902160924 31 222 6.4 19.3 0.00 0.00 0.00 67 1017.9
20260902160005 31 260 4.8 12.9 0.00 0.00 0.00 68 1017.9
20260902155403 31 241 4.8 12.9 0.00 0.00 0.00 67 1017.9
20260902154503 31 246 3.2 11.3 0.00 0.00 0.00 68 1017.8
20260902153603 31 256 3.2 11.3 0.00 0.00 0.00 69 1017.8
20260902152703 30 256 3.2 11.3 0.00 0.00 0.00 70 1017.8
20260902151803 30 235 3.2 14.5 0.00 0.00 0.00 70 1017.7
20260902150903 30 235 4.8 14.5 0.00 0.00 0.00 70 1017.7
20260902150003 30 226 6.4 17.7 0.00 0.00 0.00 70 1017.7
20260902145403 30 240 4.8 16.1 0.00 0.00 0.00 71 1017.7
20260902144503 29 227 4.8 16.1 0.00 0.00 0.00 71 1017.7
20260902143603 29 219 4.8 14.5 0.00 0.00 0.00 70 1017.6
20260902142705 29 223 4.8 11.3 0.00 0.00 0.00 72 1017.6
20260902141803 28 265 3.2 12.9 0.00 0.00 0.00 73 1017.6
20260902140903 28 250 3.2 14.5 0.00 0.00 0.00 73 1017.6
20260902140003 28 225 4.8 14.5 0.00 0.00 0.00 75 1017.7
20260902135404 27 219 4.8 14.5 0.00 0.00 0.00 76 1017.7
20260902134524 27 225 4.8 12.9 0.00 0.00 0.00 77 1017.7
20260902133624 27 236 4.8 16.1 0.00 0.00 0.00 78 1017.7
20260902132703 26 231 4.8 16.1 0.00 0.00 0.00 78 1017.7
20260902131803 26 213 4.8 12.9 0.00 0.00 0.00 81 1017.8
20260902130924 26 223 4.8 14.5 0.00 0.00 0.00 81 1017.7
20260902130024 25 216 3.2 17.7 0.00 0.00 0.00 83 1017.6
20260902125424 25 220 4.8 17.7 0.00 0.00 0.00 83 1017.6
20260902124503 25 215 4.8 16.1 0.00 0.00 0.00 84 1017.7
20260902123603 25 217 4.8 12.9 0.00 0.00 0.00 85 1017.7
20260902122703 24 217 4.8 11.3 0.00 0.00 0.00 86 1017.7
20260902121803 24 215 3.2 14.5 0.00 0.00 0.00 87 1017.6
20260902120924 23 215 3.2 11.3 0.00 0.00 0.00 89 1017.7
20260902120024 23 213 3.2 8.0 0.00 0.00 0.00 90 1017.7
20260902115403 23 217 3.2 8.0 0.00 0.00 0.00 90 1017.6
20260902114503 23 214 1.6 4.8 0.00 0.00 0.00 90 1017.6
20260902113624 23 215 0.0 4.8 0.00 0.00 0.00 90 1017.6
20260902112703 23 213 1.6 4.8 0.00 0.00 0.00 90 1017.4
20260902111803 23 217 1.6 6.4 0.00 0.00 0.00 90 1017.4
20260902110924 23 217 1.6 4.8 0.00 0.00 0.00 90 1017.3
20260902110005 23 214 3.2 8.0 0.00 0.00 0.00 90 1017.3
20260902105403 23 215 1.6 4.8 0.00 0.00 0.00 90 1017.2
20260902104503 23 217 3.2 6.4 0.00 0.00 0.00 89 1017.1
20260902103603 23 216 3.2 4.8 0.00 0.00 0.00 89 1017.2
20260902102703 23 216 1.6 6.4 0.00 0.00 0.00 89 1017.1
20260902101803 23 215 3.2 6.4 0.00 0.00 0.00 89 1017.1
20260902100903 23 213 1.6 6.4 0.00 0.00 0.00 89 1017.0
20260902100004 23 212 1.6 6.4 0.00 0.00 0.00 89 1016.9
20260902095403 23 220 1.6 6.4 0.00 0.00 0.00 89 1016.9
20260902094503 23 218 3.2 6.4 0.00 0.00 0.00 89 1016.8
20260902093624 23 217 3.2 6.4 0.00 0.00 0.00 89 1016.8
20260902092703 23 217 3.2 8.0 0.00 0.00 0.00 89 1016.8
20260902091803 23 217 1.6 8.0 0.00 0.00 0.00 89 1016.8
20260902090903 24 215 3.2 8.0 0.00 0.00 0.00 89 1016.8
20260902090004 24 214 3.2 8.0 0.00 0.00 0.00 89 1016.7
20260902085403 24 219 3.2 6.4 0.00 0.00 0.00 89 1016.8
20260902084503 24 216 1.6 4.8 0.00 0.00 0.00 88 1016.7
20260902083603 24 221 1.6 6.4 0.00 0.00 0.00 88 1016.7
20260902082703 24 214 1.6 8.0 0.00 0.00 0.00 88 1016.7
20260902081803 24 224 1.6 6.4 0.00 0.00 0.00 88 1016.6
20260902080903 24 216 1.6 6.4 0.00 0.00 0.00 88 1016.5
20260902080004 24 218 3.2 8.0 0.00 0.00 0.00 88 1016.6
20260902075403 24 222 3.2 8.0 0.00 0.00 0.00 88 1016.5
20260902074524 24 219 3.2 8.0 0.00 0.00 0.00 88 1016.5
20260902073604 24 214 3.2 8.0 0.00 0.00 0.00 88 1016.5
20260902072724 24 216 1.6 6.4 0.00 0.00 0.00 89 1016.7
20260902071803 24 219 3.2 9.7 0.00 0.00 0.00 89 1016.5
20260902070924 24 219 1.6 8.0 0.00 0.00 0.00 89 1016.5
20260902070003 24 214 1.6 6.4 0.00 0.00 0.00 89 1016.5
20260902065424 24 213 1.6 8.0 0.00 0.00 0.00 89 1016.5
20260902064503 25 212 3.2 8.0 0.00 0.00 0.00 88 1016.5
20260902063603 25 216 1.6 8.0 0.00 0.00 0.00 88 1016.5
20260902062703 25 219 1.6 6.4 0.00 0.00 0.00 88 1016.7
20260902061803 25 214 1.6 6.4 0.00 0.00 0.00 88 1016.7
20260902060903 25 214 3.2 6.4 0.00 0.00 0.00 88 1016.7
20260902060003 25 210 1.6 6.4 0.00 0.00 0.00 88 1016.8
20260902055403 25 205 1.6 4.8 0.00 0.00 0.00 88 1016.9
20260902054524 25 212 1.6 6.4 0.00 0.00 0.00 88 1016.8
20260902053624 25 208 1.6 4.8 0.00 0.00 0.00 87 1016.7
20260902052724 25 222 1.6 12.9 0.00 0.00 0.00 87 1016.7
20260902051803 25 214 3.2 11.3 0.00 0.00 0.00 87 1016.7
20260902050903 25 217 3.2 9.7 0.00 0.00 0.00 87 1016.7
20260902050006 25 214 4.8 11.3 0.00 0.00 0.00 87 1016.6
20260902045403 25 213 3.2 11.3 0.00 0.00 0.00 87 1016.6
20260902044524 26 217 3.2 8.0 0.00 0.00 0.00 86 1016.5
20260902043624 26 220 3.2 9.7 0.00 0.00 0.00 86 1016.5
20260902042703 26 213 3.2 8.0 0.00 0.00 0.00 86 1016.5
20260902041803 26 215 3.2 8.0 0.00 0.00 0.00 85 1016.5
20260902040903 26 212 3.2 11.3 0.00 0.00 0.00 85 1016.4
20260902040004 26 216 3.2 9.7 0.00 0.00 0.00 85 1016.4
20260902035403 26 215 3.2 9.7 0.00 0.00 0.00 84 1016.4
20260902034503 26 218 3.2 8.0 0.00 0.00 0.00 84 1016.4
20260902033603 26 216 3.2 8.0 0.00 0.00 0.00 84 1016.4
20260902032703 26 212 3.2 9.7 0.00 0.00 0.00 84 1016.4
20260902031803 27 213 1.6 11.3 0.00 0.00 0.00 84 1016.4
20260902030924 27 217 3.2 11.3 0.00 0.00 0.00 84 1016.5
20260902030004 27 214 3.2 8.0 0.00 0.00 0.00 84 1016.5
20260902025403 27 213 3.2 11.3 0.00 0.00 0.00 84 1016.5
20260902024503 27 214 3.2 8.0 0.00 0.00 0.00 84 1016.5
20260902023624 27 215 3.2 6.4 0.00 0.00 0.00 84 1016.5
20260902022703 27 213 3.2 9.7 0.00 0.00 0.00 83 1016.5
20260902021803 27 211 1.6 4.8 0.00 0.00 0.00 84 1016.5
20260902020903 27 208 0.0 4.8 0.00 0.00 0.00 84 1016.5
20260902020003 28 0 0.0 0.0 0.00 0.00 0.00 84 1016.5
20260902015403 28 223 1.6 4.8 0.00 0.00 0.00 84 1016.4
20260902014503 28 226 0.0 3.2 0.00 0.00 0.00 84 1016.4
20260902013603 28 0 0.0 0.0 0.00 0.00 0.00 84 1016.4
20260902012703 28 225 0.0 3.2 0.00 0.00 0.00 83 1016.4
20260902011803 28 218 0.0 3.2 0.00 0.00 0.00 82 1016.2
20260902010903 29 197 0.0 1.6 0.00 0.00 0.00 81 1016.3
20260902010003 29 0 0.0 0.0 0.00 0.00 0.00 80 1016.2
20260902005403 30 0 0.0 0.0 0.00 0.00 0.00 80 1016.2
20260902004503 30 0 0.0 0.0 0.00 0.00 0.00 79 1016.2
20260902003624 30 0 0.0 0.0 0.00 0.00 0.00 78 1016.1
20260902002703 30 0 0.0 0.0 0.00 0.00 0.00 77 1016.2
20260902001803 30 0 0.0 0.0 0.00 0.00 0.00 76 1016.2
20260902000924 31 0 0.0 0.0 0.00 0.00 0.00 75 1016.2
20260902000003 31 0 0.0 0.0 0.00 0.00 0.00 74 1016.3
20260901235403 31 191 0.0 3.2 0.00 0.00 0.00 73 1016.3
20260901234503 31 157 0.0 3.2 0.00 0.00 0.00 72 1016.2
20260901233603 32 179 0.0 4.8 0.00 0.00 0.00 71 1016.2
20260901232725 32 177 0.0 3.2 0.00 0.00 0.00 70 1016.3